map of SBL home
SBL - Airport
Location
City:  Santa Ana del Yacuma, Yacuma, El Beni, Bolivia
Name:Santa Ana del Yacuma Yacuma Airport
ICAO:SLSA
IATA:SBL

Details
Type:Airport (Aerodrome, Airfield)
Latitude:1345'44"S (-13.762207)
Longitude:6526'07"W (-65.435157)
Datum:WGS 1984
Elevation:472 ft (144 m)
Variation:11.07W (WMM2015 magnetic declination)
-0.19 annual change
Runways:1
Longest:5013 × 69 ft (1528 × 21 m), paved

Time
Time Zone:UTC-4
Local Time:

Weather
METAR:SLSA 181800Z 31008KT 9999 SCT017 BKN200 31/25 Q1008

Related Locations
Nearby:
Farthest:RPPN: 12243 mi / 19703 km
Thitu Island (Pagasa) [Rancudo Airfield], Spratly Islands, PLW, PH

Find:

   beyond  
but within

Other Information
Maps:
NOTAMs:
Links:
Sources:

  
  • flag of Bolivia
  • flag of El Beni
  

Sectional Chart

Flight Planning
at skyvector.com

Satellite Image

Google Maps Satellite view

 

Copyright © 2004-2018 Karl L. Swartz. All rights reserved.
The Great Circle Mapper name and logo are trademarks of the Great Circle Mapper.
All other trademarks mentioned herein belong to their respective owners.
Please see credits for attibutions and further copyright information.

  Follow gcmap on Facebook Follow gcmap on Twitter Follow gcmap on Google+ GCmap on LinkedIn

hCard Microformat

Geo Microformat